Location: Montbazon
(47.2835°N, 0.6999°E)
Time: 17:06:54
(UTC+00:00)

Cosmos 1939 Rocket - Pass Details

Date: 08 November 2025
Orbit: 491 x 528 km, 97.5° (Epoch: 12 December)

Event Time Altitude Azimuth Distance (km) Brightness Sun altitude
Rises 05:16:32 0° 4° (N) 2,688 6.3 -16.2°
Reaches altitude 10° 05:18:47 10° 355° (N) 1,792 5.3 -15.9°
Maximum altitude 05:22:16 33° 291° (WNW) 906 3.4 -15.3°
Enters shadow 05:24:09 21° 242° (WSW) 1,225 4.1 -15.0°
